Regional Weather Roundup
Issued by NWS

Home | Current Version | Previous Version | Graphics & Text | Print | Product List | Glossary On
Versions: 1 2 3 4 5 6 7 8 9 10 11 12 13 14 15 16 17 18 19 20 21 22 23 24 25 26 27 28 29 30 31 32 33 34 35 36 37 38 39 40 41 42 43 44 45 46 47 48 49 50
895
ASUS44 KLIX 240905
RWRLA
LOUISIANA WEATHER ROUNDUP
NATIONAL WEATHER SERVICE NEW ORLEANS LA
400 AM CDT THU APR 24 2014

NOTE: "FAIR" INDICATES FEW OR NO CLOUDS BELOW 12,000 FEET WITH NO
      SIGNIFICANT WEATHER AND/OR OBSTRUCTIONS TO VISIBILITY.
      SKY/WX - SKY CONDITION AND SIGNIFICANT WEATHER.
      TMP - AIR TEMPERATURE.    DP   - DEWPOINT TEMPERATURE.
      RH  - RELATIVE HUMIDITY.  PRES - PRESSURE.
      HX  - HEAT INDEX.         WCI  - WIND CHILL INDEX.

*  THESE STATIONS ARE NOT NWS OR FAA STATIONS AND ARE NOT UNDER
   NWS QUALITY CONTROL.

LAZ040-048-061>063-065-066-069-241000-
SOUTHEAST LOUISIANA

CITY           SKY/WX    TMP DP  RH WIND       PRES   REMARKS
N.O. AUDUBON   NOT AVBL
N.O. INTL ARPT CLEAR     65  63  93 CALM      29.91S
N.O. LAKEFRONT CLEAR     68  64  87 CALM      29.91F
N.O. DOWNTOWN* FAIR      70  63  78 CALM      29.92S
SLIDELL        CLOUDY    59  56  89 CALM      29.90F
BATON ROUGE    CLEAR     62  60  93 CALM      29.90S
BOOTHVILLE     CLEAR     70  66  87 SW6       29.92F
BELLE CHASSE   PTCLDY    61  57  88 CALM      29.91S FOG
BOGALUSA*        N/A     59  56  89 CALM      29.92F
GALLIANO*      SUNNY     62  59  90 CALM      29.91S
NEW ROADS*     FAIR      62  61  97 CALM      29.89F FOG
GONZALES*      FAIR      60  60 100 CALM      29.90S
HAMMOND*       CLEAR     63  59  88 CALM      29.92S
HOUMA*         FOG       60  58  93 CALM      29.91S VSB 1/4
PORT FOURCHON* MOSUNNY   70  66  88 S6        29.93F

$$

LAZ041-044-053-054-241000-
SOUTHWEST LOUISIANA

CITY           SKY/WX    TMP DP  RH WIND       PRES   REMARKS
LAKE CHARLES   FOG       62  61  96 SE3       29.86F VSB 1
LAFAYETTE      FOG       60  60 100 CALM      29.88F VSB 1/4
PATTERSON      MOCLDY    63  63 100 CALM      29.93S VSB 1/2
SALT POINT       N/A     68  65  90 SE3       29.89F
NEW IBERIA       N/A     63  61  93 CALM      29.89F VSB 1/4
CHENAULT AIRPK FOG       63  63 100 CALM      29.87F VSB<1/4

$$

LAZ027-028-241000-
CENTRAL LOUISIANA

CITY           SKY/WX    TMP DP  RH WIND       PRES   REMARKS
FORT POLK      FOG       64  64 100 S7        29.86S VSB 3/4
ALEXANDRIA INT MOCLDY    62  58  86 SE5       29.86R FOG
ALEXANDRIA     CLOUDY    60  57  89 CALM      29.88S

$$

LAZ001-002-241000-
NORTHWEST LOUISIANA

CITY           SKY/WX    TMP DP  RH WIND       PRES   REMARKS
SHREVEPORT     CLOUDY    62  59  90 CALM      29.85R
BARKSDALE AFB  CLOUDY    62  58  87 E3        29.86R
DTN SHREVEPORT CLOUDY    64  59  83 CALM      29.86R

$$

LAZ014-016-241000-
NORTHEAST LOUISIANA

CITY           SKY/WX    TMP DP  RH WIND       PRES   REMARKS
MONROE         PTCLDY    55  49  80 CALM      29.88S
TALLULAH       PTCLDY    61  53  75 SW3       29.89R

$$




USA.gov is the U.S. government's official web portal to all federal, state and local government web resources and services.